Regional Weather Roundup
Issued by NWS

Home | Current Version | Previous Version | Graphics & Text | Print | Product List | Glossary On
Versions: 1 2 3 4 5 6 7 8 9 10 11 12 13 14 15 16 17 18 19 20 21 22 23 24 25 26 27 28 29 30 31 32 33 34 35 36 37 38 39 40 41 42 43 44 45 46 47 48 49 50
000
ASUS43 KOAX 240210
RWRNE

WEATHER ROUNDUP FOR NEBRASKA
NATIONAL WEATHER SERVICE OMAHA NE
800 PM CST FRI FEB 23 2018

NOTES: SATELLITE DATA IS BEING USED TO AUGMENT CLOUD COVER ABOVE
       12000 FEET.
       "FAIR" INDICATES FEW OR NO CLOUDS BELOW 12,000 FEET WITH NO
       SIGNIFICANT WEATHER AND/OR OBSTRUCTIONS TO VISIBILITY.


NEZ001>004-019>022-054>056-240300-
NEBRASKA PANHANDLE

CITY           SKY/WX    TMP DP  RH WIND       PRES   REMARKS
SCOTTSBLUFF    PTCLDY    19  13  77 E9        30.02F WCI   8
ALLIANCE       CLEAR     10   8  92 E7        30.03F WCI  -1
CHADRON        CLEAR      9   4  80 CALM      30.08S
GORDON         FAIR       6   3  88 CALM      30.07F
KIMBALL        CLOUDY    23  18  81 E14       29.97S WCI  10
SIDNEY         PTCLDY    20  15  81 E9        30.02S WCI   9
$$

NEZ057>060-069>072-079>082-240300-
SOUTHWEST NEBRASKA

CITY           SKY/WX    TMP DP  RH WIND       PRES   REMARKS
NORTH PLATTE   CLEAR     19  13  77 E8        30.13F WCI   9
IMPERIAL       CLEAR     20  19  96 NE7       30.06F WCI  11
LEXINGTON      CLOUDY    25  21  87 E7        30.17S WCI  17
MCCOOK         PTCLDY    26  22  84 E12       30.10F WCI  16
OGALLALA       CLEAR     21  17  82 E8        30.09S WCI  12
$$

NEZ005>010-023>029-035>040-094-240300-
NORTH CENTRAL NEBRASKA

CITY           SKY/WX    TMP DP  RH WIND       PRES   REMARKS
VALENTINE      CLEAR     12   8  84 SE5       30.17S WCI   4
AINSWORTH      CLEAR     12  11  95 CALM      30.17F
BROKEN BOW     PTCLDY    12   7  80 N7        30.17S WCI   1
O`NEILL        CLEAR     11  10  96 CALM      30.23S
ORD            CLEAR     17  13  84 N3        30.20S
THEDFORD         N/A     16  12  84 CALM      30.15R
$$

NEZ041-046>049-061>064-073>077-083>087-240300-
SOUTH CENTRAL NEBRASKA

CITY           SKY/WX    TMP DP  RH WIND       PRES   REMARKS
GRAND ISLAND   CLOUDY    23  19  85 N8        30.21S WCI  14
AURORA         CLEAR     22  19  91 NE8       30.21S WCI  12
HASTINGS       CLOUDY    25  20  81 NE13      30.20R WCI  14
HEBRON         CLOUDY    31  26  80 E8        30.22F WCI  24
HOLDREGE       CLOUDY    24  23  96 NE13      30.16S WCI  12
KEARNEY        CLOUDY    23  20  88 NE12      30.18F WCI  12
YORK           CLEAR     21  21 100 NE6       30.23R WCI  14
$$

NEZ011>018-030>034-042>045-240300-
NORTHEAST NEBRASKA

CITY           SKY/WX    TMP DP  RH WIND       PRES   REMARKS
NORFOLK        CLOUDY    17  14  88 E5        30.24S WCI  10
ALBION         CLEAR     17  14  88 CALM      30.24R
BLAIR          CLOUDY    23  20  89 N9        30.25S FOG     WCI  13
COLUMBUS       CLEAR     21  18  88 NE8       30.26S WCI  11
FREMONT        CLOUDY    22  19  90 N6        30.27F WCI  14
TEKAMAH        CLOUDY    21  19  92 N14       30.29S WCI   8
WAYNE          CLOUDY    13  13  96 N3        30.27S
$$

NEZ050>053-065>068-078-088>093-240300-
SOUTHEAST NEBRASKA

CITY           SKY/WX    TMP DP  RH WIND       PRES   REMARKS
LINCOLN        CLOUDY    26  21  81 NE13      30.27R WCI  15
OMAHA EPPLEY   CLOUDY    24  20  84 NE10      30.28F FOG     WCI  14
BEATRICE       CLOUDY    29  25  87 NE8       30.24F WCI  21
FALLS CITY     CLOUDY    33  28  81 NE7       30.24F WCI  27
NEBRASKA CITY  CLOUDY    28  27  96 E10       30.27R WCI  18
PLATTSMOUTH    CLOUDY    25  22  90 NE10      30.27R WCI  14
$$

NEZ044-045-051>053-067-240300-
OMAHA AREA

CITY           SKY/WX    TMP DP  RH WIND       PRES   REMARKS
OMAHA EPPLEY   CLOUDY    24  20  84 NE10      30.28F FOG     WCI  14
BLAIR          CLOUDY    23  20  89 N9        30.25S FOG     WCI  13
FREMONT        CLOUDY    22  19  90 N6        30.27F WCI  14
MILLARD        CLOUDY    26  21  82 NE7       30.28S WCI  18
OFFUTT AFB     CLOUDY    25  21  84 NE9       30.28R WCI  16
PLATTSMOUTH    CLOUDY    25  22  90 NE10      30.27R WCI  14
WAHOO          CLOUDY    23  20  88 NE9       30.27S WCI  13
$$




USA.gov is the U.S. government's official web portal to all federal, state and local government web resources and services.